Manor / Austin Executive, TX

4:48 AM CST on December 16, 2019 (GMT -0600)
Manor / Austin Executive

Weather History for KEDC - October, 2019

Change the Weather History Date:

Friday, October 25, 2019

  Actual Average (WUND) Record (WUND)
Temperature  
Mean Temperature 50 °F -  
Max Temperature 55 °F - - (-1)
Min Temperature 44 °F - - (-1)
Degree Days  
Heating Degree Days 16    
Moisture  
Dew Point 41 °F    
Average Humidity 74    
Maximum Humidity 100    
Minimum Humidity 58    
Precipitation  
Precipitation 0.14 in - - ()
Sea Level Pressure  
Sea Level Pressure 30.11 in    
Wind  
Wind Speed 20 mph (NNW)    
Max Wind Speed 28 mph    
Max Gust Speed 34 mph    
Visibility 10 miles    
Events Rain    
Averages and records for this station are not official NWS values.
T = Trace of Precipitation, MM = Missing Value Source: NWS Daily Summary

Daily Weather History Graph

Daily Weather History Graph

Search for Another Location

Airport or City:

Astronomy

Oct. 25, 2019 Rise Set
Actual Time 7:39 AM CDT 6:48 PM CDT
Civil Twilight 7:14 AM CDT 7:13 PM CDT
Nautical Twilight 6:46 AM CDT 7:41 PM CDT
Astronomical Twilight 6:18 AM CDT 8:09 PM CDT
Moon 4:43 AM CDT (10/25) 5:35 PM CDT (10/25)
Length of Visible Light 11h 58m
Length of Day
11h 09m
Waning Crescent, 9% of the Moon is Illuminated
Oct 25
Waning Crescent
Oct 27
New
Nov 4
First Quarter
Nov 12
Full
Nov 19
Last Quarter

Hourly Weather History & Observations

Time (CDT) Temp. Windchill Dew Point Humidity Pressure Visibility Wind Dir Wind Speed Gust Speed Precip Events Conditions
12:15 AM 48.2 °F - 48.2 °F 100% 30.13 in 4.0 mi NNW 15.0 mph - 0.05 in Rain Light Rain
12:35 AM 48.2 °F - 46.4 °F 93% 30.13 in 4.0 mi NW 20.7 mph 28.8 mph 0.10 in Rain Light Rain
12:55 AM 48.2 °F - 46.4 °F 93% 30.11 in 6.0 mi NNW 23.0 mph 32.2 mph 0.12 in   Overcast
1:15 AM 48.2 °F - 46.4 °F 93% 30.12 in 9.0 mi NNW 17.3 mph 25.3 mph 0.01 in   Overcast
1:35 AM 48.2 °F - 44.6 °F 87% 30.12 in 10.0 mi NNW 19.6 mph 29.9 mph 0.01 in   Overcast
1:55 AM 48.2 °F - 44.6 °F 87% 30.12 in 9.0 mi NNW 18.4 mph 25.3 mph 0.01 in Rain Light Rain
2:15 AM 46.4 °F 38.1 °F 44.6 °F 93% 30.11 in 10.0 mi NNW 24.2 mph 32.2 mph N/A   Overcast
2:35 AM 46.4 °F 39.8 °F 44.6 °F 93% 30.12 in 10.0 mi NNW 16.1 mph 26.5 mph N/A   Overcast
2:55 AM 46.4 °F 39.2 °F 42.8 °F 87% 30.12 in 10.0 mi NW 18.4 mph 29.9 mph N/A   Overcast
3:15 AM 46.4 °F 37.9 °F 41.0 °F 81% 30.12 in 10.0 mi NNW 25.3 mph 31.1 mph N/A Rain Light Rain
3:35 AM 46.4 °F 38.7 °F 42.8 °F 87% 30.12 in 10.0 mi NNW 20.7 mph 28.8 mph N/A Rain Light Rain
3:55 AM 44.6 °F 36.4 °F 41.0 °F 87% 30.12 in 8.0 mi NW 20.7 mph 31.1 mph N/A Rain Light Rain
4:15 AM 44.6 °F 36.1 °F 41.0 °F 87% 30.12 in 10.0 mi NNW 21.9 mph 28.8 mph 0.01 in Rain Light Rain
4:35 AM 44.6 °F 37.4 °F 41.0 °F 87% 30.11 in 10.0 mi NNW 16.1 mph - 0.01 in   Overcast
5:15 AM 44.6 °F 36.1 °F 41.0 °F 87% 30.11 in 10.0 mi NNW 21.9 mph 32.2 mph N/A   Overcast
5:35 AM 44.6 °F 36.9 °F 41.0 °F 87% 30.12 in 10.0 mi NNW 18.4 mph 28.8 mph N/A   Overcast
5:55 AM 44.6 °F 36.4 °F 41.0 °F 87% 30.10 in 10.0 mi NNW 20.7 mph 24.2 mph N/A   Overcast
6:15 AM 44.6 °F 35.9 °F 39.2 °F 81% 30.11 in 10.0 mi NNW 23.0 mph 31.1 mph N/A   Overcast
6:35 AM 44.6 °F 35.9 °F 39.2 °F 81% 30.12 in 10.0 mi NNW 23.0 mph 28.8 mph N/A   Overcast
7:15 AM 44.6 °F 36.6 °F 39.2 °F 81% 30.13 in 10.0 mi NNW 19.6 mph 31.1 mph N/A   Overcast
7:35 AM 44.6 °F 35.3 °F 39.2 °F 81% 30.13 in 10.0 mi NNW 26.5 mph 31.1 mph N/A   Overcast
7:55 AM 44.6 °F 36.9 °F 39.2 °F 81% 30.14 in 10.0 mi NNW 18.4 mph 33.4 mph N/A   Overcast
8:15 AM 44.6 °F 36.4 °F 39.2 °F 81% 30.14 in 10.0 mi NNW 20.7 mph 26.5 mph N/A   Overcast
8:35 AM 44.6 °F 35.9 °F 39.2 °F 81% 30.14 in 10.0 mi NNW 23.0 mph 31.1 mph N/A   Overcast
8:55 AM 46.4 °F 38.5 °F 39.2 °F 76% 30.16 in 10.0 mi NNW 21.9 mph 28.8 mph N/A   Overcast
9:15 AM 44.6 °F 36.9 °F 39.2 °F 81% 30.17 in 10.0 mi NNW 18.4 mph 29.9 mph N/A   Overcast
9:35 AM 46.4 °F 38.7 °F 39.2 °F 76% 30.17 in 10.0 mi NNW 20.7 mph 26.5 mph N/A   Overcast
9:55 AM 46.4 °F 37.7 °F 39.2 °F 76% 30.17 in 10.0 mi NNW 26.5 mph 32.2 mph N/A   Overcast
10:15 AM 46.4 °F 38.1 °F 39.2 °F 76% 30.17 in 10.0 mi NNW 24.2 mph 33.4 mph N/A   Overcast
10:35 AM 48.2 °F - 39.2 °F 71% 30.17 in 10.0 mi NNW 25.3 mph 32.2 mph N/A   Overcast
10:55 AM 48.2 °F - 39.2 °F 71% 30.18 in 10.0 mi NNW 19.6 mph 29.9 mph N/A   Overcast
11:15 AM 50.0 °F - 39.2 °F 66% 30.17 in 10.0 mi North 23.0 mph 34.5 mph N/A   Overcast
11:35 AM 50.0 °F - 39.2 °F 66% 30.16 in 10.0 mi NNW 21.9 mph 29.9 mph N/A   Overcast
11:55 AM 51.8 °F - 41.0 °F 67% 30.17 in 10.0 mi NNW 19.6 mph 29.9 mph N/A   Overcast
12:15 PM 53.6 °F - 41.0 °F 62% 30.16 in 10.0 mi NNW 27.6 mph 34.5 mph N/A   Overcast
12:55 PM 53.6 °F - 41.0 °F 62% 30.14 in 10.0 mi NNW 18.4 mph 31.1 mph N/A   Mostly Cloudy
1:15 PM 53.6 °F - 41.0 °F 62% 30.13 in 10.0 mi NNW 24.2 mph 31.1 mph N/A   Mostly Cloudy
1:35 PM 53.6 °F - 41.0 °F 62% 30.12 in 10.0 mi NNW 26.5 mph 31.1 mph N/A   Mostly Cloudy
1:55 PM 53.6 °F - 41.0 °F 62% 30.11 in 10.0 mi NNW 23.0 mph 31.1 mph N/A   Mostly Cloudy
2:15 PM 55.4 °F - 41.0 °F 58% 30.10 in 10.0 mi NNW 23.0 mph 29.9 mph N/A   Mostly Cloudy
2:35 PM 55.4 °F - 41.0 °F 58% 30.09 in 10.0 mi NNW 23.0 mph 26.5 mph N/A   Mostly Cloudy
2:55 PM 55.4 °F - 41.0 °F 58% 30.09 in 10.0 mi NNW 24.2 mph 29.9 mph N/A   Overcast
3:15 PM 55.4 °F - 41.0 °F 58% 30.08 in 10.0 mi NNW 20.7 mph 28.8 mph N/A   Overcast
3:35 PM 55.4 °F - 41.0 °F 58% 30.08 in 10.0 mi NNW 20.7 mph 28.8 mph N/A   Overcast
3:55 PM 55.4 °F - 41.0 °F 58% 30.08 in 10.0 mi NNW 19.6 mph 25.3 mph N/A   Overcast
4:35 PM 55.4 °F - 41.0 °F 58% 30.08 in 10.0 mi NNW 19.6 mph 27.6 mph N/A   Overcast
4:55 PM 53.6 °F - 41.0 °F 62% 30.08 in 10.0 mi NNW 20.7 mph 27.6 mph N/A   Overcast
5:15 PM 53.6 °F - 41.0 °F 62% 30.08 in 10.0 mi NNW 21.9 mph 26.5 mph N/A   Overcast
5:35 PM 53.6 °F - 41.0 °F 62% 30.08 in 10.0 mi NW 19.6 mph 27.6 mph N/A   Overcast
5:55 PM 53.6 °F - 39.2 °F 58% 30.09 in 10.0 mi NNW 17.3 mph 26.5 mph N/A   Overcast
6:15 PM 51.8 °F - 39.2 °F 62% 30.08 in 10.0 mi NNW 18.4 mph 27.6 mph N/A   Overcast
6:35 PM 50.0 °F - 39.2 °F 66% 30.09 in 10.0 mi NNW 20.7 mph 27.6 mph N/A   Overcast
6:55 PM 50.0 °F - 39.2 °F 66% 30.09 in 10.0 mi NNW 19.6 mph 26.5 mph N/A   Overcast
7:15 PM 50.0 °F - 39.2 °F 66% 30.09 in 10.0 mi NNW 20.7 mph 26.5 mph N/A   Overcast
7:35 PM 50.0 °F - 39.2 °F 66% 30.09 in 10.0 mi NNW 16.1 mph - N/A   Mostly Cloudy
7:55 PM 50.0 °F - 39.2 °F 66% 30.09 in 10.0 mi NNW 15.0 mph 20.7 mph N/A   Partly Cloudy
8:15 PM 50.0 °F - 39.2 °F 66% 30.09 in 10.0 mi NNW 17.3 mph 25.3 mph N/A   Clear
8:35 PM 48.2 °F - 39.2 °F 71% 30.09 in 10.0 mi NNW 16.1 mph 24.2 mph N/A   Clear
8:55 PM 48.2 °F - 39.2 °F 71% 30.09 in 10.0 mi NNW 12.7 mph 20.7 mph N/A   Clear
9:15 PM 48.2 °F - 39.2 °F 71% 30.09 in 10.0 mi NNW 13.8 mph - N/A   Clear
9:35 PM 48.2 °F - 39.2 °F 71% 30.09 in 10.0 mi NNW 18.4 mph 25.3 mph N/A   Clear
9:55 PM 48.2 °F - 39.2 °F 71% 30.09 in 10.0 mi NNW 15.0 mph 24.2 mph N/A   Clear
10:35 PM 48.2 °F - 39.2 °F 71% 30.09 in 10.0 mi NNW 9.2 mph - N/A   Mostly Cloudy
10:55 PM 48.2 °F - 41.0 °F 76% 30.08 in 10.0 mi NNW 12.7 mph - N/A   Mostly Cloudy
11:15 PM 48.2 °F - 39.2 °F 71% 30.07 in 10.0 mi NNW 15.0 mph - N/A   Partly Cloudy
11:35 PM 48.2 °F - 41.0 °F 76% 30.06 in 10.0 mi NNW 11.5 mph - N/A   Partly Cloudy
11:55 PM 48.2 °F - 41.0 °F 76% 30.05 in 10.0 mi NNW 11.5 mph 17.3 mph N/A   Clear